Location: Cahoon Acres
(40.8736°N, 111.8994°W)
Time: 10:16:54
(UTC+00:00)

SR - Pass Details

Date: 11 June 2020
Orbit: 583 x 872 km, 66.7° (Epoch: 03 July)

Event Time Altitude Azimuth Distance (km) Brightness Sun altitude
Rises 21:08:56 0° 256° (WSW) 3,211 ? 62.3°
Reaches altitude 10° 21:12:19 10° 277° (W) 2,225 ? 61.8°
Maximum altitude 21:15:23 16° 315° (NW) 1,795 ? 61.3°
Drops below altitude 10° 21:18:20 10° 353° (N) 2,115 ? 60.8°
Sets 21:21:26 0° 16° (NNE) 2,973 ? 60.3°
